This is the latest recevied weather packets stored in our database for station/object KC9DNQ-3. If no packets are shown the sender has not sent any weather packets the latest 10 day(s).
| Time | Temp. | Humidity | Pressure | Rain* | Wind** | Luminosity | Snow |
|---|---|---|---|---|---|---|---|
| 1777731311 | 8.89° C | 59% | 1019.5 hPa | 0 mm | - | 438 W/m² | - |
| 1777731011 | 8.89° C | 64% | 1019.5 hPa | 0 mm | - | 418 W/m² | - |
| 1777730711 | 8.89° C | 67% | 1019.4 hPa | 0 mm | - | 403 W/m² | - |
| 1777730410 | 8.89° C | 66% | 1019.4 hPa | 0 mm | - | 392 W/m² | - |
| 1777730111 | 8.89° C | 68% | 1019.4 hPa | 0 mm | - | 362 W/m² | - |
| 1777729811 | 8.33° C | 66% | 1019.4 hPa | 0 mm | - | 374 W/m² | - |
| 1777729511 | 8.33° C | 67% | 1019.3 hPa | 0 mm | - | 376 W/m² | - |
| 1777729210 | 8.33° C | 69% | 1019.3 hPa | 0 mm | - | 348 W/m² | - |
| 1777728911 | 7.78° C | 71% | 1019.4 hPa | 0 mm | - | 359 W/m² | - |
| 1777728611 | 7.78° C | 74% | 1019.4 hPa | 0 mm | - | 353 W/m² | - |
| 1777728310 | 7.78° C | 75% | 1019.3 hPa | 0 mm | - | 366 W/m² | - |
| 1777728010 | 7.22° C | 77% | 1019.2 hPa | 0 mm | - | 359 W/m² | - |
| 1777727711 | 6.11° C | 79% | 1019.2 hPa | 0 mm | - | 348 W/m² | - |
| 1777727411 | 6.11° C | 80% | 1019.2 hPa | 0 mm | - | 336 W/m² | - |
| 1777727112 | 5.56° C | 82% | 1019.2 hPa | 0 mm | - | 311 W/m² | - |
| 1777726811 | 5° C | 83% | 1019.2 hPa | 0 mm | - | 292 W/m² | - |
| 1777726511 | 5° C | 85% | 1019.2 hPa | 0 mm | - | 88 W/m² | - |
| 1777726211 | 4.44° C | 86% | 1019.2 hPa | 0 mm | - | 179 W/m² | - |
| 1777725910 | 4.44° C | 87% | 1019.2 hPa | 0 mm | - | 60 W/m² | - |
| 1777725611 | 4.44° C | 89% | 1019.1 hPa | 0 mm | - | 97 W/m² | - |
| 1777725311 | 4.44° C | 93% | 1019.1 hPa | 0 mm | - | 65 W/m² | - |
| 1777725014 | 3.89° C | 93% | 1019.2 hPa | 0 mm | - | 69 W/m² | - |
| 1777724717 | 3.33° C | 94% | 1019.1 hPa | 0 mm | - | 111 W/m² | - |
| 1777724411 | 3.33° C | 94% | 1019 hPa | 0 mm | - | 102 W/m² | - |
| 1777724111 | 2.78° C | 94% | 1019 hPa | 0 mm | - | 83 W/m² | - |
* Rain latest hour (hover to see other rain measurements)
** Current wind speed in m/s (hover to see current wind gust speed)